{"data":{"norad_id":58469,"intl_designator":"2023-185H","name":"ION SCV-015","alt_names":[],"object_type":"PAYLOAD","status":"ACTIVE","operator":null,"country":"IT","launch_date":"2023-12-01","launch_site_code":"AFWTR","launch_vehicle":null,"mission":null,"orbit_class":"UNKNOWN","rcs_meters":null,"size_class":null,"mass_kg":null,"dimensions":null,"purposes":[],"wikipedia_slug":null,"has_3d_model":false,"image_url":null,"decayed_at":null,"tle_current":{"epoch":"2026-05-25T05:18:10.190592Z","epoch_age_seconds":59252,"freshness":"FRESH","line1":"1 58469U 23185H   26145.22095128  .00006600  00000+0  21146-3 0  9996","line2":"2 58469  97.5754 233.3958 0009594 171.3150 188.8259 15.32680143137565","mean_motion":15.32680143,"eccentricity":0.0009594,"inclination_deg":97.5754,"raan_deg":233.3958,"arg_perigee_deg":171.315,"mean_anomaly_deg":188.8259,"bstar":0.00021146,"rev_number":13756,"period_min":93.953066892444,"perigee_km":461.25178614729,"apogee_km":474.38780804957,"semimajor_km":6845.9567970984,"source":"CELESTRAK","updated_at":"2026-05-25T13:38:00.766294Z"}}}